RYR17JX LPFR-LPPR

Flight info

Callsign RYR17JX
Flight time 0h 48m
Altitude 32000
Route EVURA DCT DIGAL DCT PESUL
Aircraft B38M/M-SDE1FGHILORVWXY/HB1

Departure

Time 2026-05-01 14:32
Airport Faro - Gago Coutinho International Airport (LPFR)

Arrival

Time 2026-05-01 15:20
Airport Francisco de Sá Carneiro Airport (LPPR)
Time Latitude Longitude Altitude Speed Heading
2026-05-01 13:58 37.01870 -7.96563 22 ft 0 kts 10°
2026-05-01 14:20 37.01867 -7.96564 22 ft 3 kts 10°
2026-05-01 14:21 37.01842 -7.96570 17 ft 4 kts 10°
2026-05-01 14:21 37.01818 -7.96575 23 ft 4 kts 15°
2026-05-01 14:21 37.01800 -7.96590 24 ft 4 kts 71°
2026-05-01 14:22 37.01800 -7.96628 24 ft 0 kts 100°
2026-05-01 14:28 37.01798 -7.96613 24 ft 4 kts 101°
2026-05-01 14:28 37.01788 -7.96566 22 ft 7 kts 114°
2026-05-01 14:28 37.01737 -7.96527 22 ft 11 kts 180°
2026-05-01 14:28 37.01651 -7.96531 25 ft 13 kts 162°
2026-05-01 14:29 37.01604 -7.96431 23 ft 15 kts 99°
2026-05-01 14:29 37.01584 -7.96290 25 ft 18 kts 101°
2026-05-01 14:30 37.01532 -7.95932 22 ft 3 kts 100°
2026-05-01 14:30 37.01523 -7.95884 23 ft 8 kts 112°
2026-05-01 14:30 37.01467 -7.95839 22 ft 11 kts 178°
2026-05-01 14:31 37.01353 -7.95941 27 ft 4 kts 281°
2026-05-01 14:31 37.01360 -7.95991 25 ft 7 kts 281°
2026-05-01 14:31 37.01394 -7.96227 24 ft 66 kts 279°
2026-05-01 14:31 37.01516 -7.97148 28 ft 145 kts 278°
2026-05-01 14:32 37.01730 -7.98479 589 ft 160 kts 280°
2026-05-01 14:32 37.01912 -7.99372 1141 ft 160 kts 279°
2026-05-01 14:32 37.02097 -8.00755 2170 ft 172 kts 277°
2026-05-01 14:32 37.02306 -8.02382 2841 ft 204 kts 279°
2026-05-01 14:33 37.02557 -8.04205 3683 ft 221 kts 280°
2026-05-01 14:33 37.02828 -8.06113 4798 ft 223 kts 280°
2026-05-01 14:33 37.03100 -8.08030 5801 ft 226 kts 278°
2026-05-01 14:33 37.03483 -8.09963 6785 ft 236 kts 292°
2026-05-01 14:34 37.04554 -8.11598 7548 ft 256 kts 323°
2026-05-01 14:34 37.06274 -8.12397 8242 ft 278 kts 354°
2026-05-01 14:34 37.08254 -8.12100 8961 ft 295 kts 11°
2026-05-01 14:34 37.10334 -8.11648 9733 ft 309 kts
2026-05-01 14:35 37.12463 -8.11221 10691 ft 313 kts
2026-05-01 14:35 37.14670 -8.10785 11350 ft 328 kts
2026-05-01 14:35 37.16970 -8.10331 11926 ft 342 kts
2026-05-01 14:35 37.19347 -8.09862 12662 ft 349 kts
2026-05-01 14:36 37.21761 -8.09386 13501 ft 354 kts
2026-05-01 14:36 37.24215 -8.08903 14226 ft 359 kts
2026-05-01 14:36 37.26663 -8.08421 14924 ft 362 kts
2026-05-01 14:36 37.29166 -8.07928 15713 ft 365 kts
2026-05-01 14:37 37.31689 -8.07430 16496 ft 369 kts
2026-05-01 14:37 37.34233 -8.06928 17233 ft 372 kts
2026-05-01 14:37 37.36806 -8.06418 17956 ft 376 kts
2026-05-01 14:37 37.39401 -8.05905 18616 ft 379 kts
2026-05-01 14:38 37.42016 -8.05388 19191 ft 382 kts
2026-05-01 14:38 37.44660 -8.04864 19768 ft 385 kts
2026-05-01 14:38 37.47305 -8.04339 20423 ft 382 kts
2026-05-01 14:38 37.49912 -8.03822 21261 ft 379 kts
2026-05-01 14:39 37.52574 -8.03296 21377 ft 397 kts
2026-05-01 14:39 37.55325 -8.02748 21901 ft 399 kts
2026-05-01 14:39 37.58058 -8.02205 22680 ft 397 kts
2026-05-01 14:39 37.60781 -8.01832 23087 ft 400 kts 356°
2026-05-01 14:40 37.63565 -8.01616 23756 ft 401 kts 357°
2026-05-01 14:40 37.66360 -8.01375 24241 ft 405 kts 357°
2026-05-01 14:40 37.69181 -8.01118 24563 ft 409 kts 357°
2026-05-01 14:40 37.72080 -8.00848 24938 ft 412 kts 357°
2026-05-01 14:41 37.74892 -8.00585 25590 ft 410 kts 357°
2026-05-01 14:41 37.77745 -8.00317 26054 ft 413 kts 357°
2026-05-01 14:41 37.80619 -8.00046 26493 ft 415 kts 357°
2026-05-01 14:41 37.83510 -7.99774 26980 ft 417 kts 357°
2026-05-01 14:42 37.86413 -7.99500 27425 ft 419 kts 357°
2026-05-01 14:42 37.89330 -7.99225 27874 ft 421 kts 356°
2026-05-01 14:42 37.92262 -7.98948 28317 ft 424 kts 356°
2026-05-01 14:42 37.95209 -7.98669 28761 ft 426 kts 356°
2026-05-01 14:43 37.98173 -7.98389 29199 ft 428 kts 356°
2026-05-01 14:43 38.01150 -7.98107 29628 ft 430 kts 356°
2026-05-01 14:43 38.04139 -7.97824 30034 ft 432 kts 356°
2026-05-01 14:43 38.07135 -7.97539 30458 ft 432 kts 356°
2026-05-01 14:44 38.10132 -7.97255 30918 ft 431 kts 356°
2026-05-01 14:44 38.16120 -7.96685 31722 ft 432 kts 356°
2026-05-01 14:44 38.19115 -7.96400 32092 ft 432 kts 356°
2026-05-01 14:45 38.28094 -7.95544 32129 ft 430 kts 356°
2026-05-01 14:46 38.34068 -7.94974 32127 ft 430 kts 356°
2026-05-01 14:46 38.42989 -7.94120 32130 ft 431 kts 356°
2026-05-01 14:47 38.48960 -7.93547 32128 ft 431 kts 356°
2026-05-01 14:48 38.57924 -7.92686 32120 ft 431 kts 356°
2026-05-01 14:48 38.66889 -7.91909 32116 ft 425 kts 350°
2026-05-01 14:49 38.78653 -7.92654 32118 ft 423 kts 349°
2026-05-01 14:50 38.90407 -7.93422 32118 ft 425 kts 348°
2026-05-01 14:51 38.99255 -7.94003 32123 ft 425 kts 348°
2026-05-01 14:52 39.08132 -7.94587 32121 ft 426 kts 348°
2026-05-01 14:53 39.17036 -7.95175 32124 ft 427 kts 348°
2026-05-01 14:53 39.22971 -7.95567 32116 ft 428 kts 348°
2026-05-01 14:54 39.28917 -7.95960 32113 ft 428 kts 348°
2026-05-01 14:54 39.34865 -7.96355 32121 ft 428 kts 348°
2026-05-01 14:55 39.40819 -7.96750 32123 ft 428 kts 348°
2026-05-01 14:55 39.46776 -7.97146 32118 ft 429 kts 348°
2026-05-01 14:56 39.52734 -7.97544 32122 ft 429 kts 348°
2026-05-01 14:56 39.58549 -7.97928 32069 ft 406 kts 347°
2026-05-01 14:56 39.61339 -7.98115 31781 ft 399 kts 347°
2026-05-01 14:57 39.64120 -7.98303 31216 ft 400 kts 347°
2026-05-01 14:57 39.69628 -7.98671 30336 ft 394 kts 348°
2026-05-01 14:57 39.72361 -7.98855 29881 ft 391 kts 348°
2026-05-01 14:58 39.75064 -7.99107 29348 ft 387 kts 346°
2026-05-01 14:58 39.77745 -7.99410 28866 ft 385 kts 347°
2026-05-01 14:58 39.80412 -7.99702 28384 ft 384 kts 347°
2026-05-01 14:58 39.83067 -7.99989 27920 ft 382 kts 347°
2026-05-01 14:59 39.85710 -8.00275 27447 ft 380 kts 348°
2026-05-01 14:59 39.88345 -8.00560 26993 ft 378 kts 348°
2026-05-01 14:59 39.90955 -8.00838 26501 ft 377 kts 348°
2026-05-01 14:59 39.93564 -8.01122 26058 ft 375 kts 348°
2026-05-01 15:00 39.98754 -8.01684 25165 ft 373 kts 349°
2026-05-01 15:00 40.01307 -8.01961 24759 ft 371 kts 349°
2026-05-01 15:00 40.03877 -8.02239 24344 ft 371 kts 350°
2026-05-01 15:01 40.06445 -8.02519 23888 ft 371 kts 350°
2026-05-01 15:01 40.09006 -8.02796 23483 ft 368 kts 351°
2026-05-01 15:01 40.11555 -8.03074 23047 ft 366 kts 351°
2026-05-01 15:01 40.14086 -8.03349 22602 ft 364 kts 351°
2026-05-01 15:02 40.16608 -8.03623 22169 ft 363 kts 351°
2026-05-01 15:02 40.17458 -8.03715 22025 ft 362 kts 351°
2026-05-01 15:02 40.21616 -8.04169 21302 ft 359 kts 351°
2026-05-01 15:02 40.24105 -8.04440 20873 ft 358 kts 351°
2026-05-01 15:03 40.26579 -8.04710 20471 ft 356 kts 351°
2026-05-01 15:03 40.29044 -8.04979 20074 ft 355 kts 352°
2026-05-01 15:03 40.31500 -8.05248 19688 ft 353 kts 352°
2026-05-01 15:03 40.33939 -8.05514 19303 ft 351 kts 352°
2026-05-01 15:04 40.36368 -8.05780 18916 ft 350 kts 352°
2026-05-01 15:04 40.38796 -8.06046 18527 ft 349 kts 352°
2026-05-01 15:04 40.41206 -8.06310 18126 ft 347 kts 352°
2026-05-01 15:04 40.43607 -8.06574 17734 ft 345 kts 352°
2026-05-01 15:05 40.45988 -8.06835 17321 ft 343 kts 352°
2026-05-01 15:05 40.48357 -8.07095 16933 ft 341 kts 352°
2026-05-01 15:05 40.50719 -8.07355 16537 ft 339 kts 352°
2026-05-01 15:05 40.53058 -8.07612 16152 ft 336 kts 352°
2026-05-01 15:06 40.55391 -8.07868 15766 ft 335 kts 352°
2026-05-01 15:06 40.57705 -8.08123 15402 ft 333 kts 352°
2026-05-01 15:06 40.60008 -8.08377 15026 ft 331 kts 352°
2026-05-01 15:06 40.62299 -8.08630 14669 ft 329 kts 352°
2026-05-01 15:07 40.64577 -8.08881 14297 ft 328 kts 352°
2026-05-01 15:07 40.66818 -8.09127 13961 ft 325 kts 352°
2026-05-01 15:07 40.69070 -8.09376 13530 ft 324 kts 352°
2026-05-01 15:07 40.71303 -8.09624 13206 ft 320 kts 352°
2026-05-01 15:08 40.73518 -8.09870 12727 ft 320 kts 353°
2026-05-01 15:08 40.75721 -8.10114 12425 ft 315 kts 353°
2026-05-01 15:08 40.77896 -8.10355 12041 ft 314 kts 353°
2026-05-01 15:08 40.80061 -8.10594 11739 ft 310 kts 353°
2026-05-01 15:09 40.82205 -8.10832 11372 ft 309 kts 353°
2026-05-01 15:09 40.84334 -8.11068 11147 ft 302 kts 352°
2026-05-01 15:09 40.86278 -8.11721 11085 ft 284 kts 329°
2026-05-01 15:09 40.87763 -8.13261 11003 ft 263 kts 304°
2026-05-01 15:10 40.88625 -8.15281 10924 ft 244 kts 285°
2026-05-01 15:10 40.89723 -8.19500 10390 ft 242 kts 282°
2026-05-01 15:10 40.90217 -8.21633 10184 ft 242 kts 282°
2026-05-01 15:11 40.90683 -8.23736 10108 ft 242 kts 282°
2026-05-01 15:11 40.91601 -8.28012 9997 ft 241 kts 281°
2026-05-01 15:11 40.92049 -8.30150 9975 ft 242 kts 280°
2026-05-01 15:12 40.92494 -8.32289 10022 ft 241 kts 281°
2026-05-01 15:12 40.93379 -8.36578 10163 ft 242 kts 281°
2026-05-01 15:12 40.93821 -8.38728 10232 ft 242 kts 281°
2026-05-01 15:13 40.95064 -8.44785 10370 ft 238 kts 280°
2026-05-01 15:14 40.95936 -8.49049 9698 ft 239 kts 281°
2026-05-01 15:14 40.96366 -8.51154 9310 ft 241 kts 281°
2026-05-01 15:14 40.97238 -8.55436 8663 ft 238 kts 281°
2026-05-01 15:15 40.98200 -8.59694 8117 ft 260 kts 297°
2026-05-01 15:15 41.01329 -8.62062 7607 ft 272 kts 352°
2026-05-01 15:16 41.04808 -8.62906 7134 ft 238 kts 348°
2026-05-01 15:16 41.07904 -8.63707 6836 ft 212 kts 349°
2026-05-01 15:17 41.10641 -8.64421 6723 ft 195 kts 349°
2026-05-01 15:18 41.14594 -8.65452 4497 ft 215 kts 349°
2026-05-01 15:18 41.16126 -8.65853 3349 ft 229 kts 348°
2026-05-01 15:19 41.20355 -8.66917 1522 ft 184 kts 348°
2026-05-01 15:19 41.22746 -8.67578 435 ft 165 kts 341°
2026-05-01 15:19 41.23800 -8.67896 226 ft 133 kts 347°
2026-05-01 15:20 41.24897 -8.68155 194 ft 46 kts 349°
2026-05-01 15:20 41.25058 -8.68181 181 ft 23 kts
2026-05-01 15:20 41.25154 -8.68161 183 ft 3 kts 14°
2026-05-01 15:21 41.25187 -8.68150 182 ft 7 kts 14°
2026-05-01 15:21 41.25250 -8.68128 180 ft 12 kts 15°
2026-05-01 15:21 41.25325 -8.68093 177 ft 11 kts 22°
2026-05-01 15:21 41.25345 -8.68076 177 ft 0 kts 66°
2026-05-01 15:22 41.25338 -8.68031 177 ft 0 kts 122°
2026-05-01 15:22 41.25305 -8.67992 180 ft 10 kts 154°
2026-05-01 15:22 41.25218 -8.67984 183 ft 17 kts 179°
2026-05-01 15:23 41.25086 -8.67962 185 ft 20 kts 170°
2026-05-01 15:23 41.24947 -8.67928 192 ft 20 kts 169°
2026-05-01 15:23 41.24813 -8.67863 209 ft 19 kts 157°
2026-05-01 15:23 41.24698 -8.67815 216 ft 16 kts 167°
2026-05-01 15:24 41.24601 -8.67788 214 ft 14 kts 168°
2026-05-01 15:24 41.24505 -8.67766 220 ft 15 kts 170°
2026-05-01 15:24 41.24368 -8.67729 226 ft 23 kts 163°
2026-05-01 15:24 41.24261 -8.67638 234 ft 17 kts 128°
2026-05-01 15:25 41.24194 -8.67527 239 ft 15 kts 136°
2026-05-01 15:25 41.24098 -8.67443 239 ft 18 kts 158°
2026-05-01 15:25 41.23979 -8.67435 239 ft 13 kts 201°
2026-05-01 15:25 41.23899 -8.67488 239 ft 14 kts 190°
2026-05-01 15:26 41.23801 -8.67469 239 ft 11 kts 168°
2026-05-01 15:26 41.23735 -8.67421 239 ft 11 kts 134°
2026-05-01 15:26 41.23694 -8.67361 239 ft 6 kts 142°
2026-05-01 15:26 41.23679 -8.67350 239 ft 0 kts 154°
2026-05-01 15:29 41.23638 -8.67297 239 ft 4 kts 115°
2026-05-01 15:29 41.23635 -8.67265 239 ft 0 kts 78°
2026-05-01 15:29 41.23639 -8.67241 239 ft 0 kts 78°